Вернуться в каталог

METEOR 1-27

АктивенПогодаPO
NORAD 9903·PAYLOAD·🇷🇺 Russia

Запущен Apr 5, 1977 с Plesetsk Cosmodrome

Loading…

Ближайшие Пролёты (ближайшие 24 часа)

TLE

СвежийSource: Space-Track

Эпоха: Sep 14, 2026, 09:38 UTC

1 09903U 77024A   26257.40143066  .00000170  00000-0  90330-4 0  9994
2 09903  81.2704  51.2486 0037844 110.9257 249.5970 14.08730630540111

Отслеживайте METEOR 1-27 в реальном времени с AllMySat

Download on the App Store